This demonstration page uses our WeatherBlox Daily Observations layout. Learn more.

Left ArrowRight Arrow

39.29038, -76.61219

Hourly Observations for May 20, 2020

Temp ( °F °C ) Dew Point ( °F °C ) Humidity (%) Winds ( mph kmh ) Pressure ( in mb ) Visibility ( mi km ) Precip ( " mm )
12:54 am 00:54 undefined 55 12.8 33 0.6 44 44 undefined N/A 30.31 1027 N/A N/A
1:54 am 01:54 undefined 55 12.8 31 -0.6 40 40 undefined N/A 30.30 1026 N/A N/A
2:54 am 02:54 undefined 54 12.2 31 -0.6 42 42 undefined N/A 30.29 1026 N/A N/A
3:54 am 03:54 undefined 54 12.2 32 undefined 43 43 undefined N/A 30.29 1026 N/A N/A
4:54 am 04:54 undefined 53 11.7 33 0.6 47 47 undefined N/A 30.29 1026 N/A N/A
5:54 am 05:54 undefined 53 11.7 34 1.1 48 48 undefined N/A 30.29 1026 N/A N/A
6:54 am 06:54 undefined 53 11.7 34 1.1 48 48 undefined N/A 30.30 1026 N/A N/A
7:54 am 07:54 undefined 54 12.2 35 1.7 49 49 undefined N/A 30.32 1027 N/A N/A
8:54 am 08:54 undefined 55 12.8 36 2.2 49 49 undefined N/A 30.34 1028 N/A N/A
9:54 am 09:54 undefined 56 13.3 38 3.3 51 51 undefined N/A 30.37 1028 N/A N/A
10:54 am 10:54 undefined 59 15 40 4.4 49 49 undefined N/A 30.37 1029 N/A N/A
11:54 am 11:54 undefined 60 15.6 40 4.4 47 47 undefined N/A 30.37 1029 N/A N/A
12:54 pm 12:54 undefined 62 16.7 41 5 46 46 undefined N/A 30.37 1029 N/A N/A
1:54 pm 13:54 undefined 64 17.8 43 6.1 46 46 undefined N/A 30.37 1029 N/A N/A
2:54 pm 14:54 undefined 62 16.7 41 5 46 46 undefined N/A 30.36 1028 N/A N/A
3:54 pm 15:54 undefined 62 16.7 41 5 46 46 undefined N/A 30.35 1028 N/A N/A
4:54 pm 16:54 undefined 62 16.7 39 3.9 43 43 undefined N/A 30.35 1028 N/A N/A
5:54 pm 17:54 undefined 61 16.1 41 5 48 48 undefined N/A 30.34 1027 N/A N/A
6:54 pm 18:54 undefined 60 15.6 42 5.6 52 52 undefined N/A 30.35 1028 N/A N/A
7:54 pm 19:54 undefined 58 14.4 41 5 53 53 undefined N/A 30.35 1028 N/A N/A
8:54 pm 20:54 undefined 57 13.9 42 5.6 58 58 undefined N/A 30.38 1029 N/A N/A
9:54 pm 21:54 undefined 55 12.8 43 6.1 64 64 undefined N/A 30.38 1029 N/A N/A
10:54 pm 22:54 undefined 54 12.2 41 5 62 62 undefined N/A 30.38 1029 N/A N/A
11:54 pm 23:54 undefined 53 11.7 40 4.4 61 61 undefined N/A 30.38 1029 N/A N/A

Powered by AerisWeather